• In Portugal
  • List of Countries
  • For 7 days
  • Water Temperature
  • Satellite Maps
  • Weather Map
  • Weather Widgets
  • user-avatar
    Login

    Hourly Weather Shiraz

    Today, 24 September, Monday

    Time Temperature Precipitation Wind Pressure Humidity
    00:00 +27°C° 0 mm 1 mps 639 mmHg 31%
    01:00 +26°C° 0 mm 1 mps 639 mmHg 32%
    02:00 +26°C° 0 mm 1 mps 638 mmHg 32%
    03:00 +26°C° 0 mm 1 mps 638 mmHg 32%
    04:00 +25°C° 0 mm 2 mps 638 mmHg 31%
    05:00 +25°C° 0 mm 1 mps 638 mmHg 30%
    06:00 +25°C° 0 mm 1 mps 638 mmHg 30%
    07:00 +25°C° 0 mm 1 mps 638 mmHg 29%
    08:00 +27°C° 0 mm 2 mps 639 mmHg 25%
    09:00 +29°C° 0 mm 2 mps 639 mmHg 21%
    10:00 +31°C° 0 mm 3 mps 640 mmHg 16%
    11:00 +33°C° 0 mm 4 mps 640 mmHg 15%
    12:00 +34°C° 0 mm 5 mps 640 mmHg 13%
    13:00 +35°C° 0 mm 6 mps 640 mmHg 11%
    14:00 +35°C° 0 mm 6 mps 640 mmHg 11%
    15:00 +34°C° 0 mm 7 mps 639 mmHg 11%
    16:00 +34°C° 0 mm 8 mps 639 mmHg 11%
    17:00 +33°C° 0 mm 7 mps 638 mmHg 12%
    18:00 +32°C° 0 mm 5 mps 638 mmHg 13%
    19:00 +29°C° 0 mm 4 mps 638 mmHg 13%
    20:00 +28°C° 0 mm 3 mps 638 mmHg 15%
    21:00 +27°C° 0 mm 2 mps 637 mmHg 16%
    22:00 +26°C° 0 mm 2 mps 637 mmHg 17%
    23:00 +25°C° 0 mm 2 mps 637 mmHg 18%

    Tomorrow, 25 September, Tuesday

    Time Temperature Precipitation Wind Pressure Humidity
    00:00 +25°C° 0 mm 1 mps 637 mmHg 19%
    01:00 +24°C° 0 mm 1 mps 637 mmHg 19%
    02:00 +23°C° 0 mm 1 mps 636 mmHg 20%
    03:00 +23°C° 0 mm 1 mps 636 mmHg 20%
    04:00 +22°C° 0 mm 1 mps 636 mmHg 20%
    05:00 +22°C° 0 mm 1 mps 636 mmHg 20%
    06:00 +22°C° 0 mm 1 mps 636 mmHg 21%
    07:00 +22°C° 0 mm 1 mps 636 mmHg 21%
    08:00 +24°C° 0 mm 1 mps 637 mmHg 18%
    09:00 +26°C° 0 mm 1 mps 638 mmHg 15%
    10:00 +28°C° 0 mm 1 mps 638 mmHg 12%
    11:00 +29°C° 0 mm 1 mps 638 mmHg 11%
    12:00 +30°C° 0 mm 1 mps 638 mmHg 10%
    13:00 +31°C° 0 mm 1 mps 638 mmHg 9%
    14:00 +31°C° 0 mm 1 mps 638 mmHg 9%
    15:00 +31°C° 0 mm 1 mps 638 mmHg 8%
    16:00 +31°C° 0 mm 1 mps 637 mmHg 8%
    17:00 +30°C° 0 mm 1 mps 637 mmHg 9%
    18:00 +29°C° 0 mm 1 mps 637 mmHg 10%
    19:00 +28°C° 0 mm 1 mps 637 mmHg 11%
    20:00 +28°C° 0 mm 1 mps 637 mmHg 13%
    21:00 +27°C° 0 mm 1 mps 637 mmHg 14%
    22:00 +26°C° 0 mm 1 mps 637 mmHg 15%
    23:00 +25°C° 0 mm 1 mps 637 mmHg 16%

    Day after tomorrow, 26 September, Wednesday

    Time Temperature Precipitation Wind Pressure Humidity
    00:00 +25°C° 0 mm 1 mps 637 mmHg 16%
    01:00 +24°C° 0 mm 1 mps 637 mmHg 17%
    02:00 +24°C° 0 mm 1 mps 636 mmHg 18%
    03:00 +23°C° 0 mm 1 mps 636 mmHg 19%
    04:00 +23°C° 0 mm 1 mps 636 mmHg 20%
    05:00 +23°C° 0 mm 1 mps 636 mmHg 21%
    06:00 +23°C° 0 mm 1 mps 636 mmHg 22%
    07:00 +23°C° 0 mm 1 mps 636 mmHg 23%
    08:00 +25°C° 0 mm 1 mps 637 mmHg 21%
    09:00 +26°C° 0 mm 1 mps 638 mmHg 19%
    10:00 +28°C° 0 mm 1 mps 639 mmHg 16%
    11:00 +29°C° 0 mm 1 mps 639 mmHg 15%
    12:00 +30°C° 0 mm 1 mps 639 mmHg 14%
    13:00 +31°C° 0 mm 1 mps 639 mmHg 12%
    14:00 +31°C° 0 mm 1 mps 638 mmHg 12%
    15:00 +32°C° 0 mm 2 mps 638 mmHg 11%
    16:00 +32°C° 0 mm 2 mps 638 mmHg 11%
    17:00 +31°C° 0 mm 2 mps 638 mmHg 12%
    18:00 +30°C° 0 mm 2 mps 638 mmHg 13%
    19:00 +29°C° 0 mm 1 mps 637 mmHg 14%
    20:00 +28°C° 0 mm 1 mps 638 mmHg 15%
    21:00 +27°C° 0 mm 1 mps 638 mmHg 16%
    22:00 +26°C° 0 mm 1 mps 638 mmHg 17%
    23:00 +26°C° 0 mm 1 mps 638 mmHg 18%

    27 September, Thursday

    Time Temperature Precipitation Wind Pressure Humidity
    00:00 +25°C° 0 mm 1 mps 638 mmHg 18%
    01:00 +24°C° 0 mm 1 mps 637 mmHg 19%
    02:00 +24°C° 0 mm 1 mps 637 mmHg 19%
    03:00 +23°C° 0 mm 1 mps 637 mmHg 20%
    04:00 +23°C° 0 mm 1 mps 637 mmHg 20%
    05:00 +23°C° 0 mm 1 mps 637 mmHg 21%
    06:00 +23°C° 0 mm 1 mps 637 mmHg 21%
    07:00 +21°C° 0 mm 0 mps 638 mmHg 22%
    08:00 +25°C° 0 mm 1 mps 639 mmHg 19%
    09:00 +27°C° 0 mm 1 mps 640 mmHg 16%
    10:00 +29°C° 0 mm 1 mps 641 mmHg 12%
    11:00 +30°C° 0 mm 1 mps 641 mmHg 12%
    12:00 +31°C° 0 mm 1 mps 640 mmHg 11%
    13:00 +32°C° 0 mm 1 mps 640 mmHg 11%
    14:00 +32°C° 0 mm 2 mps 640 mmHg 10%
    15:00 +32°C° 0 mm 2 mps 640 mmHg 10%
    16:00 +32°C° 0 mm 2 mps 639 mmHg 10%
    17:00 +31°C° 0 mm 2 mps 639 mmHg 11%
    18:00 +30°C° 0 mm 2 mps 639 mmHg 12%
    19:00 +29°C° 0 mm 2 mps 639 mmHg 13%
    20:00 +28°C° 0 mm 1 mps 639 mmHg 14%
    21:00 +27°C° 0 mm 1 mps 639 mmHg 15%
    22:00 +26°C° 0 mm 1 mps 640 mmHg 16%
    23:00 +26°C° 0 mm 1 mps 639 mmHg 17%

    28 September, Friday

    Time Temperature Precipitation Wind Pressure Humidity
    00:00 +25°C° 0 mm 1 mps 639 mmHg 17%
    01:00 +22°C° 0 mm 0 mps 638 mmHg 18%
    02:00 +24°C° 0 mm 1 mps 638 mmHg 18%
    03:00 +23°C° 0 mm 1 mps 638 mmHg 19%
    04:00 +23°C° 0 mm 1 mps 638 mmHg 19%
    05:00 +23°C° 0 mm 1 mps 638 mmHg 19%
    06:00 +23°C° 0 mm 1 mps 639 mmHg 20%
    07:00 +23°C° 0 mm 1 mps 639 mmHg 20%
    08:00 +25°C° 0 mm 1 mps 640 mmHg 18%
    09:00 +27°C° 0 mm 1 mps 641 mmHg 16%
    10:00 +29°C° 0 mm 1 mps 642 mmHg 14%
    11:00 +29°C° 0 mm 1 mps 641 mmHg 13%
    12:00 +30°C° 0 mm 1 mps 641 mmHg 12%
    13:00 +31°C° 0 mm 1 mps 641 mmHg 12%
    14:00 +31°C° 0 mm 1 mps 641 mmHg 11%
    15:00 +32°C° 0 mm 1 mps 640 mmHg 11%
    16:00 +32°C° 0 mm 1 mps 640 mmHg 11%
    17:00 +31°C° 0 mm 1 mps 640 mmHg 12%
    18:00 +30°C° 0 mm 1 mps 640 mmHg 13%
    19:00 +29°C° 0 mm 1 mps 640 mmHg 14%
    20:00 +28°C° 0 mm 1 mps 640 mmHg 16%
    21:00 +27°C° 0 mm 1 mps 640 mmHg 17%
    22:00 +27°C° 0 mm 1 mps 640 mmHg 18%
    23:00 +26°C° 0 mm 1 mps 640 mmHg 18%

    29 September, Saturday

    Time Temperature Precipitation Wind Pressure Humidity
    00:00 +25°C° 0 mm 1 mps 640 mmHg 19%
    01:00 +24°C° 0 mm 1 mps 639 mmHg 19%
    02:00 +24°C° 0 mm 1 mps 639 mmHg 20%
    03:00 +23°C° 0 mm 1 mps 639 mmHg 20%
    04:00 +23°C° 0 mm 1 mps 639 mmHg 21%
    05:00 +23°C° 0 mm 1 mps 639 mmHg 21%
    06:00 +23°C° 0 mm 1 mps 639 mmHg 22%
    07:00 +23°C° 0 mm 1 mps 639 mmHg 22%
    08:00 +24°C° 0 mm 1 mps 640 mmHg 19%
    09:00 +26°C° 0 mm 1 mps 641 mmHg 17%
    10:00 +28°C° 0 mm 1 mps 642 mmHg 14%
    11:00 +29°C° 0 mm 1 mps 641 mmHg 13%
    12:00 +30°C° 0 mm 1 mps 641 mmHg 13%
    13:00 +31°C° 0 mm 1 mps 641 mmHg 12%
    14:00 +31°C° 0 mm 1 mps 640 mmHg 12%
    15:00 +31°C° 0 mm 2 mps 640 mmHg 12%
    16:00 +32°C° 0 mm 2 mps 640 mmHg 12%
    17:00 +31°C° 0 mm 2 mps 640 mmHg 13%
    18:00 +30°C° 0 mm 2 mps 640 mmHg 14%
    19:00 +29°C° 0 mm 2 mps 640 mmHg 15%
    20:00 +28°C° 0 mm 2 mps 640 mmHg 17%
    21:00 +27°C° 0 mm 1 mps 640 mmHg 18%
    22:00 +26°C° 0 mm 1 mps 640 mmHg 20%
    23:00 +25°C° 0 mm 1 mps 640 mmHg 22%
    Show more